Meath Environmental Platform

Observations for Trim Market St

Time AQI Temp °C Hum % Pres Pa CO μg/m³ H₂S μg/m³ NO μg/m³ NO₂ μg/m³ O₃ μg/m³ SO₂ μg/m³ PM1 μg/m³ PM2.5 μg/m³ PM10 μg/m³
Tuesday 11 August 2026
09:04 1 29.5 42 65,538 0.24 0 0.8 8.64 12.19 0 1.43 3.86 4.24
09:03 1 29.3 42 65,527 0.12 0 0.84 9.08 9.47 0 0 3.32 3.65
09:02 1 29.2 42 65,447 0.2 0 0.84 8.35 0 0 0 2.77 3.05
09:01 1 29.1 43 65,408 0.13 0 0.83 9.03 25.58 0 0 2.76 3.03
09:00 1 29 43 65,388 0.12 0 0.84 8.64 17.06 0 0 2.25 2.47
08:58 1 28.8 43 65,329 0.13 0 0.87 9.07 16.53 0 0.71 2.75 3.03
08:56 1 28.6 44 65,285 0.19 0 0.92 9.2 0 0 0.71 3.26 3.58
08:55 1 28.6 44 65,232 0.17 0 0.92 9.18 0 0 0.71 3.24 3.56
08:52 1 28.3 45 64,890 0.24 0 0.92 9.21 0 0 0 2.68 2.95
08:49 1 27.9 45 64,503 0.3 0 0.94 9.46 0 0 0.71 3.17 3.49
08:41 1 27 48 62,347 0.44 0 1.14 9.96 0 0 0 2.02 2.99
08:40 1 26.8 48 62,008 0.39 0 1.18 10.99 9.43 0 0 2.52 2.77
08:39 1 26.7 49 61,796 0.4 0 1.15 10.21 0 0 0 2.51 2.76
08:38 1 26.6 49 61,524 0.4 0 1.19 10.48 0 0 0.71 3.53 4.52
08:37 1 26.4 49 61,354 0.42 0 1.21 9.48 0 0 0.71 3.52 3.78
08:36 1 26.3 50 60,975 0.41 0 1.27 11.4 11.08 0 0.71 2.99 3.79
08:35 1 26.2 50 60,390 0.4 0 1.25 11.06 0 0 0 2.98 3.04
08:34 1 26 50 60,213 0.42 0 1.33 10.36 0 0 1.43 3.48 3.8
08:33 1 25.9 50 59,464 0.43 0 1.39 11.25 0 0 0.71 2.95 3.06
08:32 1 25.8 51 59,073 0.42 0 1.4 11.86 11.92 0 0.71 3.45 4.56